Regional Weather Roundup
Issued by NWS

Home | Current Version | Previous Version | Text Only | Print | Product List | Glossary Off
Versions: 1 2 3 4 5 6 7 8 9 10 11 12 13 14 15 16 17 18 19 20 21 22 23 24 25 26 27 28 29 30 31 32 33 34 35 36 37 38 39 40 41 42 43 44 45 46 47 48 49 50

000
ASUS45 KBOU 260807
RWRCO

WEATHER ROUNDUP FOR COLORADO
NATIONAL WEATHER SERVICE DENVER/BOULDER CO
100 AM MST THU FEB 26 2015

NOTE: "FAIR" INDICATES FEW OR NO CLOUDS BELOW 12000 FEET WITH NO
SIGNIFICANT WEATHER AND/OR OBSTRUCTIONS TO VISIBILITY.

COZ001>005-013-030-031-260900-
...NORTHWEST COLORADO...

CITY           SKY/WX    TMP DP  RH WIND       PRES   REMARKS
CRAIG          PTCLDY    14   9  80 CALM      30.08S
HAYDEN         MOCLDY    18  12  79 SW8       30.05S WCI   7
MEEKER         CLEAR     19  13  77 SE3       30.06S
MOUNT WERNER   NOT AVBL
STEAMBOAT SPGS CLOUDY    16  10  77 W6        30.04R WCI   7
WALDEN         CLOUDY    10   7  85 N7        30.00S WCI   0
$$

COZ006>008-011-260900-
...WEST CENTRAL VALLEYS...

CITY           SKY/WX    TMP DP  RH WIND       PRES   REMARKS
GRAND JUNCTION CLEAR     29  18  63 N7        30.05F WCI  22
MONTROSE       PTCLDY    23  22  96 SE9       30.07R WCI  13
EAGLE          MOCLDY    25  19  80 CALM      30.05F
RIFLE          CLEAR     27  16  63 NW7       30.06R WCI  19
DELTA          MOCLDY    33  30  89 NE5       30.05S WCI  29
NUCLA          PTCLDY    30  19  64 SE6       30.07S WCI  24
$$

COZ017>023-064>068-260900-
...SOUTHWEST COLORADO...

CITY           SKY/WX    TMP DP  RH WIND       PRES   REMARKS
DURANGO        CLEAR     26  22  84 CALM      29.95S
CORTEZ         CLEAR     23  21  92 NE7       30.00F WCI  15
PAGOSA SPRINGS MOCLDY    23  23 100 CALM      29.97S
TELLURIDE      PTCLDY    21  14  73 W3        30.00S
WOLF CREEK PAS LGT SNOW  10   9  92 N3        29.95S
$$

COZ009-010-012-014-032>034-037-058>063-260900-
...CENTRAL COLORADO...

CITY           SKY/WX    TMP DP  RH WIND       PRES   REMARKS
ASPEN          CLOUDY    19  16  88 CALM      29.98S
BUENA VISTA    LGT SNOW  20  17  91 NE3       30.00S VSB 3/4
COPPER MTN     CLOUDY     9   1  72 W20       29.88F WCI -11
BERTHOUD PASS  LGT SNOW   0  -8  71 NW6       29.86F WCI -12
COTTONWOOD PAS LGT SNOW  18  14  86 CALM      29.95F
GUNNISON       MOCLDY    21  18  86 W3        30.00R
KREMMLING      MOCLDY    12   7  79 SE3       30.02F
LEADVILLE      CLOUDY     8   4  83 NE5       29.92F WCI   0
MONARCH PASS     N/A      7   3  85 MISG      29.99S
SALIDA         CLOUDY    23  18  83 E12G17    30.08F WCI  11
SUNLIGHT       PTCLDY   N/A N/A N/A CALM        N/A
WILKERSON PASS LGT SNOW   5   1  85 SE7       29.92F WCI  -7
$$

COZ069>075-260900-
...SAN LUIS VALLEY/SANGRE DE CRISTO MOUNTAINS...

CITY           SKY/WX    TMP DP  RH WIND       PRES   REMARKS
ALAMOSA        LGT SNOW  22  18  85 E15       29.97S FOG     WCI   9
LA VETA PASS   HVY SNOW  10   9  92 MISG      29.94S VSB 1/4
SAGUACHE       MOCLDY    23  21  93 SE12      29.97R WCI  12
$$

COZ035-036-038>040-260900-
...NORTHERN COLORADO FRONT RANGE...

CITY           SKY/WX    TMP DP  RH WIND       PRES   REMARKS
DENVER INTL AP LGT SNOW  16  12  84 NE9       30.18S FOG     WCI   4
DMNS CITY PARK   N/A     16  14  93 E3G9      30.19S
AURORA         LGT SNOW  14  12  90 NE12      30.17S WCI   1
FRONT RANGE AP NOT AVBL
ERIE MUNI ARPT LGT SNOW  18  16  90 SE3       30.20S
BOULDER MUN AP LGT SNOW  19  18  93 CALM      30.18S
CENTENNIAL     LGT SNOW  14  11  87 NE8       30.16R VSB 3/4 WCI   3
BROOMFIELD     LGT SNOW  18  18 100 E8        30.17S WCI   7
FORT COLLINS   CLOUDY    19  10  68 NE7       30.19S WCI  10
LONGMONT       FLURRIES  22  15  75 CALM      30.21S
$$

COZ041-046-047-076>085-087-088-260900-
...PIKES PEAK/PALMER DIVIDE AND SOUTHERN FOOTHILLS...

CITY           SKY/WX    TMP DP  RH WIND       PRES   REMARKS
COLO. SPRINGS  FLURRIES  19  10  68 N22G29    30.11R WCI   2
A. F. ACADEMY  MOCLDY    14   9  79 N17G25    30.09F WCI  -3
ELLICOTT       NOT AVBL
FALCON         LGT SNOW  14  10  83 N18G25    30.08S WCI  -3
FORT CARSON    LGT SNOW  20  16  84 N17G23    30.10R VSB 1   WCI   6
LIMON          LGT SNOW  19  16  88 NE13      30.14R FOG     WCI   6
MONUMENT HILL    N/A     10   9  92 N9        30.08S WCI  -2
TRINIDAD       LGT SNOW  23  21  92 SE5       30.10S FOG     WCI  17
$$

COZ042>045-048>051-090-091-260900-
...NORTHEAST COLORADO...

CITY           SKY/WX    TMP DP  RH WIND       PRES   REMARKS
GREELEY ARPT   CLOUDY    19   9  63 NE8       30.19S WCI   9
AKRON          LGT SNOW  13  11  92 NE8       30.19R FOG     WCI   2
BURLINGTON     CLOUDY    17  10  74 N20       30.20R WCI   1
WRAY           CLOUDY    18  11  75 NE10      30.26R WCI   6
STERLING       CLOUDY    18  12  79 NE8       30.23R WCI   7
HOLYOKE        NOT AVBL
FORT MORGAN    CLOUDY    18  12  77 N15       30.21S WCI   4
$$

COZ086-089-092>099-260900-
...SOUTHEAST COLORADO...

CITY           SKY/WX    TMP DP  RH WIND       PRES   REMARKS
PUEBLO         LGT SNOW  24  18  77 N23       30.14R WCI   9
LA JUNTA       LGT SNOW  28  26  92 SE9       30.14R VSB 1   WCI  19
LAMAR          FLURRIES  26  21  81 E17       30.17R WCI  13
SPRINGFIELD      N/A     24  22  91 NE15      30.12S WCI  11
$$


USA.gov is the U.S. government's official web portal to all federal, state and local government web resources and services.